South Hill, VA

5:45 AM EDT on July 24, 2017 (GMT -0400)
Mecklenburg-Brunswick Regional

Weather History for KAVC - January, 2013

Change the Weather History Date:

Friday, January 18, 2013

  Actual Average (KEMV) Record (KEMV)
Temperature  
Mean Temperature 36 °F -  
Max Temperature 46 °F 48 °F 72 °F (1990)
Min Temperature 26 °F 27 °F 8 °F (2003)
Degree Days  
Heating Degree Days 29    
Moisture  
Dew Point 31 °F    
Average Humidity 89    
Maximum Humidity 100    
Minimum Humidity 53    
Precipitation  
Precipitation 0.38 in - - ()
Sea Level Pressure  
Sea Level Pressure 30.42 in    
Wind  
Wind Speed 2 mph (NW)    
Max Wind Speed 6 mph    
Max Gust Speed -    
Visibility 9 miles    
Events Rain    
Averages and records for this station are not official NWS values.
T = Trace of Precipitation, MM = Missing Value Source: NWS Daily Summary

Daily Weather History Graph

Daily Weather History Graph

Search for Another Location

Airport or City:

Trip Planner

Search our weather history database for the weather conditions in past years. The results will help you decide how hot, cold, wet, or windy it might be!

Date:

Astronomy

Jan. 18, 2013 Rise Set
Actual Time 7:22 AM EST 5:23 PM EST
Civil Twilight 6:54 AM EST 5:51 PM EST
Nautical Twilight 6:22 AM EST 6:22 PM EST
Astronomical Twilight 5:52 AM EST 6:53 PM EST
Moon 11:13 AM EST (1/18) No Moon Set
Length of Visible Light 10h 56m
Length of Day
10h 00m
Waxing Crescent, 47% of the Moon is Illuminated
Jan 18
Waxing Crescent
Jan 18
First Quarter
Jan 26
Full
Feb 3
Last Quarter
Feb 10
New

Hourly Weather History & Observations

Time (EST) Temp. Windchill Dew Point Humidity Pressure Visibility Wind Dir Wind Speed Gust Speed Precip Events Conditions
12:17 AM 32.0 °F - 32.0 °F 100% 30.19 in 10.0 mi Calm Calm - N/A Rain Light Rain
12:40 AM 33.8 °F - 33.8 °F 100% 30.20 in 10.0 mi Calm Calm - N/A Rain Rain
1:37 AM 32.0 °F 28.7 °F 32.0 °F 100% 30.20 in 10.0 mi WNW 3.5 mph - N/A   Overcast
1:57 AM 32.0 °F 27.5 °F 32.0 °F 100% 30.23 in 10.0 mi WNW 4.6 mph - N/A   Overcast
2:17 AM 32.0 °F 26.4 °F 32.0 °F 100% 30.24 in 10.0 mi NW 5.8 mph - N/A   Overcast
2:39 AM 32.0 °F 27.5 °F 32.0 °F 100% 30.24 in 10.0 mi WNW 4.6 mph - N/A   Overcast
2:57 AM 32.0 °F 28.7 °F 32.0 °F 100% 30.24 in 7.0 mi NW 3.5 mph - N/A   Overcast
3:19 AM 32.0 °F - 32.0 °F 100% 30.24 in 3.0 mi Calm Calm - 0.01 in   Overcast
3:58 AM 32.0 °F - 32.0 °F 100% 30.25 in 1.2 mi Calm Calm - N/A   Overcast
4:17 AM 32.0 °F - 32.0 °F 100% 30.27 in 2.0 mi Calm Calm - N/A   Overcast
4:37 AM 32.0 °F - 32.0 °F 100% 30.28 in 2.0 mi Calm Calm - N/A   Overcast
5:37 AM 30.2 °F 26.7 °F 30.2 °F 100% 30.30 in 7.0 mi West 3.5 mph - N/A   Scattered Clouds
6:40 AM 30.2 °F - 30.2 °F 100% 30.33 in 10.0 mi North - - 0.01 in   Clear
7:19 AM 30.2 °F - 30.2 °F 100% 30.36 in 10.0 mi Calm Calm - N/A   Clear
8:17 AM 30.2 °F - 30.2 °F 100% 30.41 in 10.0 mi Calm Calm - N/A   Clear
9:37 AM 39.2 °F 37.0 °F 37.4 °F 93% 30.47 in 10.0 mi WNW 3.5 mph - 0.08 in   Clear
10:17 AM 44.6 °F 43.1 °F 37.4 °F 76% 30.50 in 10.0 mi WNW 3.5 mph - 0.10 in   Clear
11:17 AM 44.6 °F 43.1 °F 35.6 °F 71% 30.51 in 10.0 mi NW 3.5 mph - 0.12 in   Clear
11:39 AM 44.6 °F 43.1 °F 35.6 °F 71% 30.50 in 10.0 mi NNW 3.5 mph - 0.18 in   Clear
12:59 PM 44.6 °F 43.1 °F 33.8 °F 66% 30.49 in 10.0 mi NNW 3.5 mph - N/A   Scattered Clouds
1:20 PM 42.8 °F 39.3 °F 30.2 °F 61% 30.50 in 10.0 mi North 5.8 mph - N/A   Scattered Clouds
2:17 PM 46.4 °F 45.2 °F 35.6 °F 66% 30.50 in 10.0 mi NW 3.5 mph - N/A   Scattered Clouds
2:59 PM 46.4 °F 45.2 °F 32.0 °F 57% 30.51 in 10.0 mi NNW 3.5 mph - N/A   Scattered Clouds
3:17 PM 46.4 °F - 35.6 °F 66% 30.52 in 10.0 mi Calm Calm - N/A   Scattered Clouds
3:37 PM 46.4 °F - 30.2 °F 53% 30.52 in 10.0 mi Calm Calm - N/A   Clear
4:40 PM 42.8 °F 41.1 °F 30.2 °F 61% 30.53 in 10.0 mi North 3.5 mph - N/A   Clear
5:39 PM 35.6 °F - 30.2 °F 81% 30.56 in 10.0 mi Calm Calm - N/A   Clear
5:59 PM 32.0 °F - 30.2 °F 93% 30.56 in 10.0 mi Calm Calm - N/A   Clear
6:20 PM 30.2 °F - 30.2 °F 100% 30.56 in 10.0 mi Calm Calm - N/A   Clear
6:57 PM 28.4 °F - 28.4 °F 100% 30.57 in 10.0 mi Calm Calm - N/A   Clear
7:57 PM 28.4 °F - 28.4 °F 100% 30.58 in 10.0 mi Calm Calm - N/A   Clear
8:17 PM 28.4 °F - 28.4 °F 100% 30.57 in 10.0 mi Calm Calm - N/A   Clear
8:39 PM 28.4 °F - 28.4 °F 100% 30.57 in 10.0 mi Calm Calm - N/A   Clear
9:17 PM 26.6 °F - 26.6 °F 100% 30.58 in 10.0 mi Calm Calm - N/A   Clear
10:37 PM 26.6 °F - 26.6 °F 100% 30.56 in 10.0 mi Calm Calm - N/A   Clear
10:57 PM 26.6 °F - 26.6 °F 100% 30.56 in 10.0 mi Calm Calm - N/A   Clear